CAPE
0 0 0 0 0 0 0 0 0 0 0 0 0 0 0 0 0 0 0 0 0 0 0 0 0 0 0 0 0 0 0 0 0 0 0 0 0 0 1 3 12 101 265 653 749 582 512 499 344
0 0 0 0 0 0 0 0 0 0 0 0 0 0 0 0 0 0 0 0 0 0 0 0 0 0 0 0 0 0 0 0 0 0 0 0 0 0 0 0 1 1 48 151 229 221 267 339 412
0 0 0 0 0 0 0 0 0 0 0 0 0 0 0 0 0 0 0 0 0 0 0 0 0 0 0 0 0 0 0 0 0 0 0 0 0 0 0 0 0 0 0 3 8 14 10 39 181
0 0 0 0 0 0 0 0 0 0 0 0 0 0 0 0 0 0 0 0 0 0 0 0 0 0 0 0 0 0 0 0 0 0 0 0 0 0 0 0 0 0 0 0 0 0 0 0 1
0 0 0 0 0 0 0 0 0 0 0 0 0 0 0 0 0 0 0 0 0 0 0 0 0 0 0 0 0 0 0 0 0 0 0 0 0 0 0 0 0 0 0 0 0 0 0 0 0
0 0 0 0 0 0 0 0 0 0 0 0 0 0 0 0 0 0 0 0 0 0 0 0 0 0 0 0 0 0 0 0 0 0 0 0 0 0 0 0 0 0 0 0 0 0 0 0 0
0 0 0 0 0 0 0 0 0 0 0 0 0 0 0 0 0 0 0 0 0 0 0 0 0 0 0 0 0 0 0 0 0 0 0 0 0 0 0 0 0 0 0 0 0 0 0 0 0
0 0 0 0 0 0 0 0 0 0 0 0 0 0 0 0 0 0 0 0 0 0 0 0 0 0 0 0 0 0 0 0 0 0 0 0 0 0 0 0 0 0 0 0 0 0 0 0 0
0 0 0 0 0 0 0 0 0 0 0 0 0 0 0 0 0 0 0 0 0 0 0 0 0 0 0 0 0 0 0 0 0 0 0 0 0 0 0 0 0 0 0 0 0 0 0 0 0
0 0 0 0 0 0 0 0 0 0 0 0 0 0 0 0 0 0 0 0 0 0 0 0 0 0 0 0 0 0 0 0 0 0 0 0 0 0 0 0 0 0 0 0 0 0 0 0 0
0 0 0 0 0 0 0 0 0 0 0 0 0 0 0 0 0 0 0 0 0 0 0 0 0 0 0 0 0 0 0 0 0 0 0 0 0 0 0 0 0 0 0 0 0 0 0 0 0
0 0 0 0 0 0 0 0 0 0 0 0 0 0 0 0 0 0 0 0 0 0 0 0 0 0 0 0 0 0 0 0 0 0 0 0 0 0 0 0 0 0 0 0 0 0 0 0 0
0 0 0 0 0 0 0 0 0 0 0 0 0 0 0 0 0 0 0 0 0 0 0 0 0 0 0 0 0 0 0 0 0 0 0 0 0 0 0 0 0 0 0 0 0 0 0 0 0
0 0 0 0 0 0 0 0 0 0 0 0 0 0 0 0 0 0 0 0 0 0 0 0 0 0 0 0 0 0 0 0 0 0 0 0 0 0 0 0 0 0 0 0 0 0 0 0 0
0 0 0 0 0 0 0 0 0 0 0 0 0 0 0 0 0 0 0 0 0 0 0 0 0 0 0 0 0 0 0 0 0 0 0 0 0 0 0 0 0 0 0 0 0 0 0 0 0
0 0 0 0 0 0 0 0 0 0 0 0 0 0 0 0 0 0 0 0 0 0 0 0 0 0 0 0 0 0 0 0 0 0 0 0 0 0 0 0 0 0 0 0 0 0 0 0 0
0 0 0 0 0 0 0 0 0 0 0 0 0 0 0 0 0 0 0 0 0 0 0 0 0 0 0 0 0 0 0 0 0 0 0 0 0 0 0 0 0 0 0 0 0 0 0 0 0
0 0 0 0 0 0 0 0 0 0 0 0 0 0 0 0 0 0 0 0 0 0 0 0 0 0 0 0 0 0 0 0 0 0 0 0 0 0 0 0 0 0 0 0 0 0 0 0 0
0 0 0 0 0 0 0 0 0 0 0 0 0 0 0 0 0 0 0 0 0 0 0 0 0 0 0 0 0 0 0 0 0 0 0 0 0 0 0 0 0 0 0 0 0 0 0 0 0
0 0 0 0 0 0 0 0 0 0 0 0 0 0 0 0 0 0 0 0 0 0 0 0 0 0 0 0 0 0 0 0 0 0 0 0 0 0 0 0 0 0 0 0 0 0 0 0 0
0 0 0 0 0 0 0 0 0 0 0 0 0 0 0 0 0 0 0 0 0 0 0 0 0 0 0 0 0 0 0 0 0 0 0 0 0 0 0 0 0 0 0 0 0 0 0 0 0
0 0 0 0 0 0 0 0 0 0 0 0 0 0 0 0 0 0 0 0 0 0 0 0 0 0 0 0 0 0 0 0 0 0 0 0 0 0 0 0 0 0 0 0 0 0 0 0 2
0 0 0 0 0 0 0 0 0 0 0 0 0 0 0 0 0 0 0 0 0 0 0 0 0 0 0 0 0 0 0 0 0 0 0 0 0 0 0 0 0 0 0 0 0 0 0 0 1
0 0 0 0 0 0 0 0 0 0 0 0 0 0 0 0 0 0 0 0 0 0 0 0 0 0 0 0 0 0 0 0 0 0 0 0 0 0 0 0 0 0 0 0 0 0 0 1 0
0 0 0 0 0 0 0 0 0 0 0 0 0 0 0 0 0 0 0 0 0 0 0 0 0 0 0 0 0 0 0 0 0 0 0 0 0 0 0 0 0 0 0 0 0 1 0 0 1
0 0 0 0 0 0 0 0 0 0 0 0 0 0 0 0 0 0 0 0 0 0 0 0 0 0 0 0 0 0 0 0 0 0 0 0 0 0 0 0 0 0 0 0 0 0 1 1 0
0 0 0 0 0 0 0 0 0 0 0 0 0 0 0 0 0 0 0 0 0 0 0 0 0 0 0 0 0 0 0 0 0 0 0 0 0 0 0 0 0 0 0 0 0 0 0 0 0
0 0 0 0 0 0 0 0 0 0 0 0 0 0 0 0 0 0 0 0 0 0 0 0 0 0 0 0 0 0 0 0 0 0 0 0 0 0 0 0 0 0 0 0 0 0 0 0 0
0 0 0 0 0 0 0 0 0 0 0 0 0 0 0 0 0 0 0 0 0 0 0 0 0 0 0 0 0 0 0 0 0 0 0 0 0 0 0 0 0 0 0 0 0 0 0 0 0
0 0 0 0 0 0 0 0 0 0 0 0 0 0 0 0 0 0 0 0 0 0 0 0 0 0 0 0 0 0 0 0 0 0 0 0 0 0 0 0 0 0 0 0 0 0 0 0 2
CIN
0 0 0 0 0 0 0 0 0 0 0 0 0 0 0 0 0 0 0 0 0 0 0 0 0 0 0 0 0 0 0 0 0 0 0 0 0 0 0 -165 -152 -95 -32 -3 -18 -33 -41 -37 -33
0 0 0 0 0 0 0 0 0 0 0 0 0 0 0 0 0 0 0 0 0 0 0 0 0 0 0 0 0 0 0 0 0 0 0 0 0 0 0 0 0 0 -186 -95 -106 -85 -128 -63 -15
0 0 0 0 0 0 0 0 0 0 0 0 0 0 0 0 0 0 0 0 0 0 0 0 0 0 0 0 0 0 0 0 0 0 0 0 0 0 0 0 0 0 0 -91 -258 -224 -183 -101 -33
0 0 0 0 0 0 0 0 0 0 0 0 0 0 0 0 0 0 0 0 0 0 0 0 0 0 0 0 0 0 0 0 0 0 0 0 0 0 0 0 0 0 0 0 0 0 0 0 0
0 0 0 0 0 0 0 0 0 0 0 0 0 0 0 0 0 0 0 0 0 0 0 0 0 0 0 0 0 0 0 0 0 0 0 0 0 0 0 0 0 0 0 0 0 0 0 0 0
0 0 0 0 0 0 0 0 0 0 0 0 0 0 0 0 0 0 0 0 0 0 0 0 0 0 0 0 0 0 0 0 0 0 0 0 0 0 0 0 0 0 0 0 0 0 0 0 0
0 0 0 0 0 0 0 0 0 0 0 0 0 0 0 0 0 0 0 0 0 0 0 0 0 0 0 0 0 0 0 0 0 0 0 0 0 0 0 0 0 0 0 0 0 0 0 0 0
0 0 0 0 0 0 0 0 0 0 0 0 0 0 0 0 0 0 0 0 0 0 0 0 0 0 0 0 0 0 0 0 0 0 0 0 0 0 0 0 0 0 0 0 0 0 0 0 0
0 0 0 0 0 0 0 0 0 0 0 0 0 0 0 0 0 0 0 0 0 0 0 0 0 0 0 0 0 0 0 0 0 0 0 0 0 0 0 0 0 0 0 0 0 0 0 0 0
0 0 0 0 0 0 0 0 0 0 0 0 0 0 0 0 0 0 0 0 0 0 0 0 0 0 0 0 0 0 0 0 0 0 0 0 0 0 0 0 0 0 0 0 0 0 0 0 0
0 0 0 0 0 0 0 0 0 0 0 0 0 0 0 0 0 0 0 0 0 0 0 0 0 0 0 0 0 0 0 0 0 0 0 0 0 0 0 0 0 0 0 0 0 0 0 0 0
0 0 0 0 0 0 0 0 0 0 0 0 0 0 0 0 0 0 0 0 0 0 0 0 0 0 0 0 0 0 0 0 0 0 0 0 0 0 0 0 0 0 0 0 0 0 0 0 0
0 0 0 0 0 0 0 0 0 0 0 0 0 0 0 0 0 0 0 0 0 0 0 0 0 0 0 0 0 0 0 0 0 0 0 0 0 0 0 0 0 0 0 0 0 0 0 0 0
0 0 0 0 0 0 0 0 0 0 0 0 0 0 0 0 0 0 0 0 0 0 0 0 0 0 0 0 0 0 0 0 0 0 0 0 0 0 0 0 0 0 0 0 0 0 0 0 0
0 0 0 0 0 0 0 0 0 0 0 0 0 0 0 0 0 0 0 0 0 0 0 0 0 0 0 0 0 0 0 0 0 0 0 0 0 0 0 0 0 0 0 0 0 0 0 0 0
0 0 0 0 0 0 0 0 0 0 0 0 0 0 0 0 0 0 0 0 0 0 0 0 0 0 0 0 0 0 0 0 0 0 0 0 0 0 0 0 0 0 0 0 0 0 0 0 0
0 0 0 0 0 0 0 0 0 0 0 0 0 0 0 0 0 0 0 0 0 0 0 0 0 0 0 0 0 0 0 0 0 0 0 0 0 0 0 0 0 0 0 0 0 0 0 0 0
0 0 0 0 0 0 0 0 0 0 0 0 0 0 0 0 0 0 0 0 0 0 0 0 0 0 0 0 0 0 0 0 0 0 0 0 0 0 0 0 0 0 0 0 0 0 0 0 0
0 0 0 0 0 0 0 0 0 0 0 0 0 0 0 0 0 0 0 0 0 0 0 0 0 0 0 0 0 0 0 0 0 0 0 0 0 0 0 0 0 0 0 0 0 0 0 0 0
0 0 0 0 0 0 0 0 0 0 0 0 0 0 0 0 0 0 0 0 0 0 0 0 0 0 0 0 0 0 0 0 0 0 0 0 0 0 0 0 0 0 0 0 0 0 0 0 0
0 0 0 0 0 0 0 0 0 0 0 0 0 0 0 0 0 0 0 0 0 0 0 0 0 0 0 0 0 0 0 0 0 0 0 0 0 0 0 0 0 0 0 0 0 0 0 0 0
0 0 0 0 0 0 0 0 0 0 0 0 0 0 0 0 0 0 0 0 0 0 0 0 0 0 0 0 0 0 0 0 0 0 0 0 0 0 0 0 0 0 0 0 0 0 0 0 0
0 0 0 0 0 0 0 0 0 0 0 0 0 0 0 0 0 0 0 0 0 0 0 0 0 0 0 0 0 0 0 0 0 0 0 0 0 0 0 0 0 0 0 0 0 0 0 0 0
0 0 0 0 0 0 0 0 0 0 0 0 0 0 0 0 0 0 0 0 0 0 0 0 0 0 0 0 0 0 0 0 0 0 0 0 0 0 0 0 0 0 0 0 0 0 0 0 0
0 0 0 0 0 0 0 0 0 0 0 0 0 0 0 0 0 0 0 0 0 0 0 0 0 0 0 0 0 0 0 0 0 0 0 0 0 0 0 0 0 0 0 0 0 0 0 0 0
0 0 0 0 0 0 0 0 0 0 0 0 0 0 0 0 0 0 0 0 0 0 0 0 0 0 0 0 0 0 0 0 0 0 0 0 0 0 0 0 0 0 0 0 0 0 0 0 0
0 0 0 0 0 0 0 0 0 0 0 0 0 0 0 0 0 0 0 0 0 0 0 0 0 0 0 0 0 0 0 0 0 0 0 0 0 0 -1 0 0 0 0 0 0 0 0 0 0
0 0 0 0 0 0 0 0 0 0 0 0 0 0 0 0 0 0 0 0 0 0 0 0 0 0 0 0 0 0 0 0 0 0 0 0 0 0 0 0 0 0 0 0 0 0 0 0 0
0 0 0 0 0 0 0 0 0 0 0 0 0 0 0 0 0 0 0 0 0 0 0 0 0 0 0 0 0 0 0 0 0 0 0 0 0 0 0 0 0 0 0 0 0 0 0 0 0
0 0 0 0 0 0 0 0 0 0 0 0 0 0 0 0 0 0 0 0 0 0 0 0 0 0 0 0 0 0 0 0 0 0 0 0 0 0 0 0 0 0 0 0 0 0 0 0 0
Wind_Speed
17 15 11 12 11 14 12 12 14 12 14 12 13 13 14 15 14 16 14 10 11 9 9 10 9 10 11 12 13 14 15 16 17 17 17 17 18 18 17 17 18 18 19 18 16 16 15 21 22
16 12 12 12 13 16 14 12 15 9 11 11 12 14 16 17 15 13 9 8 9 9 9 10 10 11 11 12 13 14 15 16 17 18 18 18 18 18 18 19 18 19 19 19 18 20 20 22 24
12 13 12 12 12 11 13 11 14 13 12 11 13 15 15 15 13 8 12 6 7 8 8 9 9 10 11 12 13 14 15 17 18 19 19 19 19 20 20 19 20 20 21 22 23 22 22 23 22
11 13 15 14 8 13 11 10 15 15 13 13 14 16 15 14 14 8 6 5 5 6 7 8 9 10 11 12 14 15 16 17 19 19 20 20 21 21 21 21 21 22 22 23 23 23 25 24 24
12 13 15 17 16 16 12 14 16 12 15 15 14 17 17 16 13 7 6 5 4 6 7 8 9 10 11 13 14 16 17 18 19 20 20 21 22 22 23 23 23 23 23 23 24 25 26 26 26
11 13 17 15 16 18 16 18 17 14 16 17 17 17 18 17 10 5 5 4 4 4 6 8 9 11 12 14 15 16 17 18 20 20 21 22 22 23 23 24 24 24 25 25 26 25 25 26 27
13 15 17 18 19 22 18 19 15 15 16 17 16 19 19 14 9 5 4 4 4 5 6 7 9 11 13 14 16 16 17 18 20 20 21 21 22 23 24 24 25 25 26 26 26 27 27 28 28
13 16 18 17 18 20 18 18 16 17 18 17 15 18 20 14 5 5 5 5 5 5 6 7 10 12 14 15 15 16 17 18 20 21 21 22 23 24 25 25 26 26 26 26 27 28 28 28 29
13 17 20 20 17 19 19 18 19 18 19 20 18 20 21 9 5 6 8 9 8 9 8 8 9 11 13 14 16 17 18 19 20 21 22 23 24 24 25 26 27 27 27 28 28 28 28 29 29
14 19 20 19 18 19 19 20 22 23 22 23 25 22 20 6 5 6 7 8 10 10 10 9 10 11 12 15 16 18 19 20 21 22 22 23 24 25 26 26 27 28 29 29 29 29 29 29 30
17 22 21 21 20 20 22 23 21 24 27 24 25 23 17 9 9 10 11 10 9 10 11 10 10 12 13 15 17 18 19 21 22 23 24 25 26 26 27 28 28 29 29 29 30 30 30 31 31
22 21 20 21 19 22 24 23 25 23 25 24 21 22 16 12 11 12 12 12 11 11 11 11 12 13 16 17 18 19 20 21 23 24 25 27 28 29 29 29 30 30 30 31 31 31 32 32 31
23 23 21 22 23 25 25 26 28 27 28 28 27 24 21 16 15 15 15 14 13 14 13 13 13 14 16 18 19 21 22 23 24 25 27 27 28 29 30 30 31 31 31 31 32 32 32 31 32
21 23 26 26 25 25 25 26 23 25 23 27 24 23 22 19 16 17 16 15 14 14 14 14 15 16 16 18 20 21 23 24 25 26 27 27 28 29 30 31 31 32 32 33 32 32 32 32 32
23 29 30 26 24 23 21 27 25 22 24 22 21 24 26 25 22 18 18 17 16 17 15 14 15 15 18 19 20 21 23 24 26 27 27 27 27 28 30 31 31 31 31 31 31 31 32 32 32
24 25 29 23 20 20 19 27 22 20 22 23 28 33 32 30 28 27 23 19 17 16 15 14 14 15 17 20 22 23 24 25 26 27 27 28 27 28 30 30 30 30 29 29 30 30 31 31 32
26 32 27 27 21 21 20 25 21 20 28 35 37 35 32 31 29 31 30 22 18 16 15 15 15 17 19 21 23 24 25 25 26 27 28 28 28 29 29 29 29 28 28 28 29 29 29 31 32
30 29 27 27 24 23 24 27 29 32 34 34 32 31 30 30 31 31 27 22 17 15 13 14 16 18 20 23 24 25 26 26 28 28 28 28 28 27 27 27 27 26 26 27 28 28 29 29 31
26 28 28 25 24 27 30 33 31 31 28 29 27 25 24 25 25 25 22 18 14 13 13 14 17 19 22 25 27 28 30 29 28 28 28 26 26 27 27 26 25 25 25 26 26 26 27 26 30
27 29 30 28 25 27 31 35 33 27 25 23 22 24 25 23 23 22 20 18 16 13 14 15 18 21 24 26 27 27 27 27 28 26 26 27 27 27 25 24 24 24 24 25 25 26 26 24 29
28 28 27 28 27 26 33 35 27 23 20 20 22 22 22 22 22 22 21 18 16 16 16 18 19 21 23 23 24 25 26 27 28 28 28 28 27 25 23 22 23 24 24 24 24 25 25 26 27
29 23 24 25 27 33 25 39 26 21 20 21 21 21 21 22 22 22 21 20 18 18 19 19 19 20 22 22 25 27 28 31 28 28 28 28 26 22 22 22 22 23 23 22 24 24 24 24 27
26 19 21 22 26 30 28 31 28 20 22 20 18 19 19 22 23 23 21 20 19 19 19 19 21 22 23 24 26 26 28 28 27 28 27 26 23 22 22 22 22 23 22 22 22 23 24 25 26
13 19 22 23 26 37 28 25 28 20 19 18 17 17 22 24 23 22 21 21 20 19 20 21 24 23 23 24 25 25 25 27 27 26 27 25 23 22 22 24 23 21 21 21 21 21 22 24 24
21 21 30 33 32 35 23 24 25 19 18 16 17 20 22 23 23 22 22 21 20 19 20 22 23 21 23 22 24 23 25 26 26 26 25 24 24 24 25 24 22 21 22 21 21 21 22 22 23
21 22 27 35 33 30 20 25 22 18 17 16 18 19 21 22 23 23 22 21 17 18 18 18 17 19 20 20 23 24 25 25 25 26 25 25 24 24 24 22 22 22 21 21 20 19 19 20 21
21 25 19 24 24 29 25 26 27 18 16 16 16 18 21 23 24 25 22 22 18 18 17 15 16 17 16 18 22 25 25 25 26 25 25 25 23 23 21 22 24 23 21 18 19 19 20 21 22
20 13 22 22 29 31 26 27 24 15 13 14 15 17 21 22 24 25 23 24 22 21 16 15 19 17 18 18 25 27 26 26 26 24 24 22 22 22 22 24 25 24 17 19 19 20 21 22 21
19 21 19 18 21 26 29 27 19 17 10 11 14 17 20 21 23 24 24 25 24 23 20 19 17 23 21 22 22 25 26 25 24 24 23 23 22 22 24 26 27 18 19 19 19 19 19 19 20
22 21 19 23 24 24 26 31 23 16 9 13 17 19 18 19 22 22 23 25 26 26 25 23 20 21 22 23 24 24 24 24 23 23 23 22 23 23 25 26 19 18 17 19 18 19 19 19 21
Wind_Direction
299 305 339 330 354 339 347 353 334 337 338 354 347 347 344 341 339 337 348 31 68 61 42 36 34 23 11 5 0 353 347 345 345 344 342 343 344 345 339 337 335 330 335 338 328 333 329 302 298
307 333 332 335 331 318 329 339 338 352 352 20 7 352 341 332 341 348 14 41 57 49 42 39 37 29 22 11 2 356 349 342 341 340 340 340 340 338 338 337 334 327 324 326 327 318 311 307 297
324 321 325 339 331 326 334 344 341 354 351 350 348 350 349 343 355 21 350 70 51 37 34 31 31 24 15 8 359 352 348 343 338 335 335 336 336 334 332 334 330 322 316 307 305 304 308 301 306
329 319 320 319 335 335 340 346 334 333 340 344 341 337 342 347 352 17 50 75 49 22 14 12 12 9 6 360 354 350 343 339 337 335 333 331 330 328 328 326 324 320 315 311 307 300 297 301 301
317 325 312 312 316 318 326 322 325 328 326 332 335 331 333 339 347 29 73 77 65 17 358 358 357 353 350 349 347 344 341 340 336 333 332 328 326 325 322 320 320 318 315 312 310 305 300 298 299
323 325 311 311 313 314 321 318 322 322 323 326 327 328 328 330 350 29 59 61 36 23 350 341 343 342 340 338 339 340 339 337 336 335 332 329 327 325 323 320 316 317 314 311 309 308 307 304 301
317 313 310 310 311 307 313 317 321 321 324 325 331 326 328 333 344 29 41 31 17 1 347 336 333 334 334 333 333 334 336 336 334 333 332 331 328 325 322 320 319 317 313 312 310 307 306 303 302
317 313 310 310 310 309 315 317 322 321 321 329 335 328 327 337 15 25 7 353 344 339 333 326 323 324 326 328 330 331 332 332 331 331 329 328 327 324 321 318 316 315 315 313 310 308 306 305 302
317 306 302 303 309 311 317 316 318 324 319 321 324 323 325 348 2 341 328 321 319 316 313 315 318 320 323 324 325 326 327 328 328 328 328 326 324 323 322 319 315 313 311 311 310 309 308 305 304
304 301 301 308 310 309 311 311 313 312 313 312 311 316 323 330 318 306 299 294 298 300 304 309 313 315 318 320 321 322 323 323 324 325 325 324 323 321 320 319 316 313 311 308 308 308 307 307 306
303 295 301 305 309 309 307 307 311 309 305 310 313 317 321 314 304 300 298 295 291 294 298 301 307 312 313 315 316 318 319 319 320 320 320 321 320 320 319 317 315 314 313 311 308 306 306 305 305
297 300 300 306 309 308 305 308 305 306 306 312 317 316 318 306 297 293 291 290 289 293 293 297 301 304 307 310 312 313 314 315 316 317 318 317 315 315 315 315 314 314 313 310 309 307 305 304 304
295 301 304 304 304 303 305 302 303 303 305 306 306 306 306 302 297 297 296 294 288 287 289 292 298 302 305 306 308 309 310 311 312 313 314 315 314 314 314 313 313 312 311 310 309 308 307 306 305
307 303 300 302 302 304 303 303 307 307 314 309 314 316 315 310 300 300 294 288 280 283 284 289 294 299 303 306 307 307 308 309 310 312 313 314 315 314 314 313 312 311 310 309 308 307 307 306 305
304 298 299 300 302 301 308 301 299 307 311 314 318 321 321 316 312 302 295 289 284 286 286 286 292 298 299 302 305 307 307 308 308 310 312 313 315 315 314 313 312 313 313 312 310 309 308 306 307
301 302 298 306 306 308 309 301 312 314 311 311 311 311 312 311 312 310 305 297 289 286 283 287 293 296 299 302 304 304 305 306 307 310 311 312 313 314 313 313 314 316 316 316 313 311 309 308 308
295 292 295 300 304 305 301 305 314 318 310 305 306 310 312 312 312 310 305 297 289 284 282 286 292 296 300 303 304 304 303 305 306 307 308 310 311 313 313 313 313 316 315 315 314 313 314 311 310
288 290 294 295 302 300 298 296 302 306 307 307 310 312 313 314 313 311 311 308 300 293 288 290 295 299 302 303 303 303 303 303 304 305 306 308 310 312 314 314 315 317 317 316 317 316 315 315 314
292 291 293 298 301 299 297 297 302 308 313 313 317 320 322 323 324 328 327 324 317 309 299 298 299 302 303 303 301 299 297 298 301 304 305 307 310 311 311 312 315 317 317 317 318 319 318 320 322
287 289 290 297 300 301 300 298 301 307 311 317 320 321 322 323 325 330 335 333 327 319 312 307 305 305 305 304 303 301 299 298 300 303 305 307 307 308 309 311 312 314 315 317 318 320 321 323 326
282 283 289 292 300 303 303 300 303 308 312 318 320 322 325 326 326 328 327 329 325 317 311 309 309 308 309 308 307 305 302 300 298 298 300 303 305 307 308 309 310 311 314 316 318 321 324 321 325
280 286 290 293 296 294 309 298 305 305 306 312 317 322 327 331 334 333 331 326 321 315 311 309 309 309 309 309 308 304 300 295 297 298 299 300 302 304 305 305 308 311 315 318 320 323 325 326 323
284 291 293 297 296 299 299 300 306 308 303 306 313 322 329 332 332 331 330 326 324 319 314 311 309 308 308 307 306 305 301 299 298 296 296 297 297 298 301 304 307 310 316 320 322 323 323 323 322
279 290 298 300 299 292 297 295 304 306 307 310 315 323 328 331 333 334 333 328 326 322 315 312 308 310 310 309 306 306 303 297 296 293 290 290 291 295 298 300 306 313 319 321 328 329 327 326 327
278 281 286 289 289 290 303 297 299 308 313 316 319 325 333 337 340 339 337 334 331 324 319 313 310 313 311 313 306 306 300 294 289 286 285 287 289 291 294 300 305 311 314 319 324 330 330 332 333
265 274 280 286 288 294 302 297 308 312 312 315 323 331 335 339 341 338 338 339 341 337 330 323 322 319 318 315 304 298 293 289 288 282 282 285 291 292 296 300 304 308 316 321 330 335 339 339 338
272 270 286 289 297 294 296 301 302 310 310 316 326 333 337 343 343 340 343 339 345 341 337 335 332 328 328 319 305 292 289 286 282 284 286 286 289 294 299 298 299 303 316 332 332 338 339 339 340
276 276 278 282 286 288 297 300 301 309 303 314 325 331 336 344 342 342 345 337 339 335 343 343 328 330 323 319 291 281 282 282 282 283 281 288 290 297 298 292 289 298 332 330 335 339 340 339 344
267 269 280 284 285 289 294 300 312 312 305 316 326 332 337 342 340 341 342 337 334 326 330 331 337 312 315 303 302 279 276 276 274 276 283 289 295 295 289 279 278 327 326 333 337 342 349 352 352
270 270 267 276 282 287 292 295 311 314 315 319 324 331 340 344 340 341 337 332 321 318 314 317 325 314 307 288 278 274 269 271 278 283 290 294 294 289 279 268 315 329 336 334 340 343 350 354 353